User: anonymous   Login
Location: Whitehorse
(60.7170°N, 135.0500°W)
Time: 02:45:04
(UTC-08:00)
Language:

Cosmos 2219 Rocket - Orbit

View from above orbital plane
View from above orbital plane
View from above satellite
View from above satellite

Ground track
Ground track

The orbit data is extracted from the following two-line orbital elements,

1 22220U 92076B   17015.51259450 -.00000021  00000-0  13574-4 0  9995
2 22220  70.9998  20.6196 0011766 155.5134 332.6626 14.16407412249150
Epoch (UTC): 15 January 2017 12:18:08
Eccentricity: 0.0011766
inclination: 70.9998°
perigee height: 829 km
apogee height: 846 km
right ascension of ascending node: 20.6196°
argument of perigee: 155.5134°
revolutions per day: 14.16407412
mean anomaly at epoch: 332.6626°
orbit number at epoch: 24915

The dashed part of the orbit path shows where the satellite is in the earth's shadow,  

DLR